#timestamp,LO_Frequency,Hit,StdDev 
1588708815.6,286047003.1,N
1588708835.5,286046992.9,N
1588708855.3,286046992.5,N
1588708875.1,286046995.9,N
1588708895.9,286046998.9,N
1588708915.7,286047003.8,N
1588708935.6,286047007.9,N
1588708955.4,286047006.7,N
1588708975.2,286047012.0,N
1588708995.1,286047012.9,N
1588708996.0,286047012.9,N
1588709015.8,286047012.6,N
1588709035.6,286047012.8,N
1588709055.5,286047015.2,N
1588709075.3,286047015.4,N
1588709095.1,286047016.0,N
1588709115.9,286047016.8,N
1588709135.7,286047016.5,N
1588709155.6,286047021.3,N
1588709175.4,286047022.9,N
1588709195.2,286047022.8,N
1588709215.1,286047024.8,N
1588709216.0,286047024.8,N
1588709235.8,286047023.8,N
1588709255.6,286047026.8,N
1588709275.5,286047025.3,N
1588709295.3,286047028.1,N
1588709315.2,286047027.6,N
1588709335.9,286047027.1,N
1588709355.7,286047029.7,N
1588709375.6,286047027.6,N
1588709395.4,286047028.7,N
1588709415.2,286047029.0,N
1588709435.1,286047033.1,Y
1588709436.0,286047033.1,P
1588709455.8,286047012.7,N
1588709475.7,286047010.9,N
1588709495.5,286047014.0,N
1588709515.3,286047014.7,N
1588709535.2,286047017.2,N
1588709555.0,286047017.9,N
1588709555.9,286047017.9,N
1588709575.8,286047021.9,Y
1588709595.6,286047003.0,P
1588709615.5,286047000.6,N
1588709635.3,286047004.9,N
1588709655.1,286047006.4,N
1588709675.9,286047005.5,N
1588709695.4,286047007.4,N
1588709715.2,286047008.6,N
1588709735.0,286047009.6,N
1588709735.9,286047009.6,N
1588709755.8,286047010.4,N
1588709775.6,286047008.2,N
1588709795.4,286047011.8,N
1588709815.3,286047011.0,N
1588709835.1,286047008.0,N
1588709855.9,286047006.2,N
1588709875.7,286047005.5,N
1588709895.5,286047008.4,N
1588709915.4,286047012.3,Y
1588709935.2,286047001.4,P
1588709955.0,286046998.6,N
1588709955.9,286046998.6,N
1588709975.8,286047002.3,N
1588709995.6,286047005.9,N
1588710015.5,286047003.2,N
1588710035.3,286047002.8,N
1588710055.1,286046996.6,N
1588710075.9,286046996.3,N
1588710095.7,286046997.8,N
1588710115.5,286047001.1,N
1588710135.4,286047001.9,N
1588710155.2,286047002.3,N
1588710175.1,286046998.5,N
1588710176.0,286046998.5,N
1588710195.8,286046996.8,N
1588710215.6,286046997.4,N
1588710235.5,286046998.9,N
1588710255.3,286046993.7,N
1588710275.1,286046999.9,N
1588710295.9,286046996.9,N
1588710315.7,286046993.7,N
1588710335.6,286046990.5,N
1588710355.4,286046993.2,N
1588710375.2,286046992.5,N
1588710395.1,286046995.0,N
1588710396.0,286046995.0,N
1588710415.8,286046997.9,N
1588710435.6,286046999.6,N
1588710455.5,286046996.2,N
1588710475.3,286046993.6,N
1588710495.2,286046994.4,N
1588710515.9,286046993.3,N
1588710535.7,286046995.4,N
1588710555.6,286047000.8,N
1588710575.4,286046998.5,N
1588710595.2,286047003.2,N
1588710615.1,286047003.5,N
1588710616.0,286047003.5,N
1588710635.8,286047009.1,N
1588710655.7,286047012.4,Y
1588710675.5,286047018.4,P
1588710695.3,286047020.5,N
1588710715.2,286047021.0,N
1588710735.0,286047024.2,N
1588710735.9,286047024.2,N
1588710755.8,286047026.0,N
1588710775.6,286047027.4,Y
1588710795.5,286047008.2,P
1588710815.3,286047009.4,N
1588710835.1,286047013.5,N
1588710855.9,286047014.9,Y
1588710875.7,286047005.7,P
1588710895.5,286047005.9,N
1588710915.4,286047003.1,N
1588710935.2,286047005.0,N
1588710955.1,286047007.8,N
1588710956.0,286047007.8,N
1588710975.8,286047006.2,N
1588710995.6,286047003.5,N
1588711015.5,286047005.0,N
1588711035.3,286047008.8,Y
1588711055.1,286047003.8,P
1588711075.9,286046999.9,N
1588711095.7,286047002.0,N
1588711115.6,286047002.3,N
1588711135.4,286046999.7,N
1588711155.2,286047000.3,N
1588711175.1,286047003.7,N
1588711176.0,286047003.7,N
1588711195.8,286047004.5,N
1588711215.6,286047009.6,Y
1588711235.5,286047003.6,P
1588711255.3,286047004.1,P
1588711275.2,286047001.3,N
1588711295.9,286047005.2,Y
1588711315.7,286047001.4,P
1588711335.6,286047005.7,P
1588711355.4,286047006.4,P
1588711375.2,286047006.9,Y
1588711395.1,286047003.8,P
1588711396.0,286047003.8,P
1588711415.8,286047004.2,P
1588711435.7,286047002.9,Y
1588711455.5,286047001.4,P
1588711475.3,286047005.7,P
1588711495.2,286047006.2,P
1588711515.0,286047006.9,Y
1588711515.9,286047006.9,P
1588711535.8,286047000.8,N
1588711555.6,286047001.4,N
1588711575.4,286047003.5,N
1588711595.3,286047006.3,N
1588711615.1,286047005.6,N
1588711635.8,286047005.8,N
1588711655.7,286047003.5,N
1588711675.5,286047002.9,N
1588711695.4,286047006.8,Y
1588711715.2,286047003.1,P
1588711735.0,286047003.8,P
1588711735.9,286047003.8,P
1588711755.8,286047002.0,Y
1588711775.6,286047004.3,P
1588711795.4,286047001.8,P
1588711815.3,286046999.8,N
1588711835.1,286047003.2,N
1588711855.9,286047005.1,Y
1588711875.7,286047006.6,P
1588711895.5,286047005.4,N
1588711915.4,286047008.3,P
1588711935.2,286047010.0,Y
1588711955.0,286047004.9,P
1588711956.0,286047004.9,P
1588711975.8,286047006.9,P
1588711995.6,286047006.7,Y
1588712015.5,286047002.7,P
1588712035.3,286047003.7,N
1588712055.1,286047000.3,N
1588712075.9,286047004.0,N
1588712095.7,286047004.3,N
1588712115.6,286047005.9,Y
1588712135.4,286047001.3,P
1588712155.2,286046999.8,N
1588712175.1,286047005.0,P
1588712176.0,286047005.0,N
1588712195.8,286047004.9,N
1588712215.6,286047005.6,N
1588712235.5,286047005.4,N
1588712255.3,286047007.4,Y
1588712275.2,286047006.0,P
1588712295.9,286047002.5,N
1588712315.7,286047001.7,N
1588712335.6,286047004.8,N
1588712355.4,286047006.9,Y
1588712375.2,286047004.2,P
1588712395.1,286047003.0,P
1588712396.0,286047003.0,P
